BMCB-8 Weather Reports


time (UTC)temp
F
wind
direction
speed
knots
gust
knots
rain 1hr
in
rain 24hr
in
rain mn
in
humidity
%
barometer
mb
20260506185112 51 19 3.5 7.0 0.00 0.57 0.44 78 1011.1
20260506184104 51 23 3.5 5.2 0.00 0.58 0.44 78 1011.0
20260506183110 51 48 2.6 5.2 0.00 0.58 0.44 79 1010.9
20260506182113 51 45 3.5 5.2 0.00 0.59 0.44 79 1010.8
20260506181102 52 41 4.3 7.8 0.00 0.60 0.44 79 1010.6
20260506180111 52 36 4.3 7.8 0.00 0.61 0.44 78 1010.5
20260506175110 52 17 3.5 6.1 0.00 0.61 0.44 78 1010.3
20260506174106 52 12 3.5 7.8 0.00 0.62 0.44 79 1010.2
20260506173105 52 11 2.6 5.2 0.00 0.63 0.44 79 1010.1
20260506172110 52 8 2.6 3.5 0.00 0.63 0.44 80 1010.1
20260506171105 53 14 1.7 2.6 0.00 0.64 0.44 79 1009.9
20260506170100 53 23 3.5 5.2 0.00 0.65 0.44 80 1009.9
20260506165103 53 6 3.5 5.2 0.00 0.65 0.44 79 1009.9
20260506164058 53 314 5.2 7.8 0.00 0.65 0.44 79 1009.7
20260506163033 53 316 5.2 7.8 0.00 0.65 0.44 78 1009.7
20260506162104 53 316 6.1 8.7 0.00 0.65 0.44 78 1009.8
20260506161103 53 333 7.0 8.7 0.00 0.65 0.44 76 1009.7
20260506160033 53 334 7.0 8.7 0.00 0.65 0.44 76 1009.7
20260506155051 54 334 7.0 8.7 0.00 0.65 0.44 76 1009.7
20260506154045 54 333 6.1 10.4 0.00 0.65 0.44 77 1009.6
20260506153052 54 333 6.1 10.4 0.00 0.65 0.44 78 1009.6
20260506151023 53 330 3.5 5.2 0.00 0.65 0.44 82 1009.6
20260506145038 52 339 3.5 5.2 0.00 0.65 0.44 83 1009.6
20260506144051 52 339 3.5 5.2 0.00 0.65 0.44 86 1009.6
20260506143058 52 334 2.6 3.5 0.00 0.65 0.44 86 1009.7
20260506142041 52 327 3.5 4.3 0.00 0.65 0.44 86 1009.7
20260506141022 51 329 2.6 3.5 0.00 0.65 0.44 86 1009.8
20260506140107 51 329 2.6 3.5 0.00 0.65 0.44 85 1009.7
20260506135023 51 2 4.3 7.0 0.00 0.65 0.44 85 1009.7
20260506133059 51 25 3.5 6.1 0.00 0.65 0.44 84 1009.8
20260506132023 51 15 3.5 6.1 0.00 0.65 0.44 84 1009.8
20260506131100 51 15 3.5 6.1 0.00 0.65 0.44 83 1009.6
20260506130029 52 8 4.3 7.8 0.00 0.65 0.44 82 1009.6
20260506124022 51 354 7.0 10.4 0.00 0.65 0.44 82 1009.6
20260506123101 51 354 7.0 10.4 0.00 0.65 0.44 82 1009.4
20260506122022 51 3 6.1 10.4 0.00 0.65 0.44 85 1009.3
20260506121021 51 3 6.1 10.4 0.00 0.65 0.44 87 1009.3
20260506120056 50 350 5.2 10.4 0.00 0.65 0.44 89 1009.3
20260506114059 49 1 3.5 6.1 0.00 0.65 0.44 91 1009.4
20260506112100 50 357 6.1 10.4 0.00 0.65 0.44 91 1009.3
20260506105058 48 355 7.0 9.6 0.00 0.65 0.44 94 1009.5
20260506104052 48 355 7.0 10.4 0.01 0.65 0.44 95 1009.6
20260506103051 47 358 6.1 9.6 0.01 0.65 0.44 95 1009.5
20260506102100 47 4 6.1 11.3 0.02 0.65 0.44 96 1009.4
20260506101043 47 4 7.0 10.4 0.02 0.65 0.44 96 1009.3
20260506100051 47 8 6.1 10.4 0.02 0.65 0.44 97 1009.2
20260506095028 47 2 7.0 12.2 0.03 0.65 0.44 97 1009.1
20260506094058 47 2 7.0 12.2 0.04 0.65 0.44 97 1009.1
20260506093051 47 2 5.2 9.6 0.03 0.64 0.43 98 1009.0
20260506092055 46 7 6.1 9.6 0.03 0.64 0.43 98 1008.9
20260506091056 46 4 6.1 12.2 0.03 0.63 0.43 98 1008.9
20260506090101 47 357 6.1 10.4 0.04 0.64 0.43 98 1008.8
20260506085059 46 359 7.0 10.4 0.04 0.63 0.42 98 1008.7
20260506084053 46 357 7.0 12.2 0.03 0.62 0.41 98 1008.6
20260506083051 46 352 7.8 12.2 0.02 0.61 0.40 98 1008.5
20260506082023 46 352 7.0 9.6 0.03 0.61 0.40 98 1008.5
20260506073056 46 346 7.8 10.4 0.02 0.59 0.38 98 1008.2
20260506072054 46 349 7.8 11.3 0.02 0.59 0.38 98 1008.1
20260506071057 46 346 7.8 10.4 0.02 0.58 0.37 98 1008.1
20260506062055 45 345 7.0 10.4 0.06 0.57 0.35 98 1007.9
20260506061054 45 344 7.0 9.6 0.08 0.57 0.35 98 1007.9
20260506051056 45 349 7.0 9.6 0.07 0.52 0.29 97 1007.9
20260506044055 45 353 6.1 8.7 0.05 0.51 0.25 97 1007.8
20260506043058 45 354 7.0 8.7 0.04 0.52 0.24 97 1007.8
20260506042053 45 355 6.1 10.4 0.03 0.52 0.24 97 1007.7
20260506041054 46 345 7.8 11.3 0.03 0.51 0.23 96 1007.7
20260506040057 46 353 6.1 8.7 0.03 0.51 0.22 96 1007.7
20260506035057 46 276 6.1 10.4 0.02 0.50 0.21 96 1007.7
20260506034058 46 4 7.0 10.4 0.02 0.50 0.21 96 1007.8
20260506032054 46 6 7.0 11.3 0.02 0.50 0.20 96 1007.7
20260506031056 46 9 6.1 9.6 0.03 0.50 0.20 96 1007.8
20260506030053 46 12 6.1 10.4 0.03 0.49 0.20 96 1007.8
20260506025055 46 8 7.0 12.2 0.02 0.48 0.19 97 1007.8
20260506023058 46 15 7.0 11.3 0.03 0.48 0.19 97 1007.9
20260506022056 46 13 7.8 14.8 0.03 0.47 0.18 97 1007.9
20260506020056 47 19 6.1 10.4 0.03 0.46 0.17 97 1008.0
20260506015057 47 28 5.2 8.7 0.02 0.46 0.17 97 1008.0
20260506014055 47 12 5.2 10.4 0.03 0.46 0.17 97 1008.0
20260506012055 47 22 6.1 11.3 0.05 0.45 0.16 97 1008.0
20260506011055 47 16 6.1 9.6 0.05 0.44 0.15 97 1008.0
20260506010051 47 21 6.1 10.4 0.06 0.44 0.15 97 1008.1
20260506005055 47 17 4.3 9.6 0.06 0.43 0.14 97 1008.1
20260506004056 47 25 5.2 9.6 0.06 0.43 0.14 97 1008.1
20260506003054 47 25 6.1 11.3 0.06 0.43 0.13 97 1008.2
20260506002058 48 15 6.1 10.4 0.06 0.42 0.13 97 1008.3
20260506001054 48 14 6.1 9.6 0.06 0.40 0.11 97 1008.3
20260506000105 48 19 5.2 8.7 0.06 0.39 0.10 97 1008.4
20260505235105 48 21 5.2 9.6 0.06 0.39 0.09 97 1008.5
20260505233106 48 27 5.2 8.7 0.06 0.37 0.08 97 1008.6
20260505232107 48 23 5.2 9.6 0.06 0.36 0.07 97 1008.6
20260505231108 48 25 6.1 13.0 0.06 0.35 0.06 97 1008.7
20260505230109 48 34 6.1 11.3 0.06 0.35 0.06 97 1008.7
20260505225107 48 37 6.1 12.2 0.06 0.34 0.05 97 1008.8
20260505224105 48 34 5.2 9.6 0.06 0.33 0.04 97 1008.8
20260505223106 48 34 6.1 9.6 0.05 0.31 0.02 97 1008.8
20260505221109 48 32 5.2 10.4 0.05 0.30 0.01 97 1008.9
20260505220104 48 31 6.1 9.6 0.06 0.30 0.01 97 1008.9
20260505215114 48 31 7.0 10.4 0.06 0.29 0.29 97 1009.0
20260505214114 48 29 5.2 8.7 0.06 0.28 0.28 97 1009.0
20260505213113 48 22 6.1 10.4 0.06 0.28 0.28 97 1009.1
20260505211111 48 30 6.1 11.3 0.05 0.26 0.26 98 1009.1
20260505210112 48 21 6.1 11.3 0.05 0.25 0.25 98 1009.2
20260505205111 48 26 6.1 11.3 0.05 0.24 0.24 98 1009.2
20260505204112 48 24 5.2 10.4 0.05 0.24 0.24 98 1009.2
20260505203116 48 29 5.2 8.7 0.05 0.23 0.23 98 1009.2
20260505202113 48 26 6.1 13.0 0.05 0.22 0.22 98 1009.2
20260505200108 49 22 5.2 7.8 0.05 0.21 0.21 98 1009.1
20260505195111 49 23 6.1 9.6 0.05 0.20 0.20 98 1009.0
20260505194113 49 24 5.2 9.6 0.05 0.20 0.20 98 1009.0
20260505193116 49 26 7.0 10.4 0.04 0.19 0.19 98 1008.8
20260505191114 49 24 5.2 8.7 0.04 0.17 0.17 98 1008.8
20260505190110 49 27 5.2 9.6 0.05 0.17 0.17 98 1008.7